Eugene, OR

10:49 PM PDT on July 21, 2017 (GMT -0700)
Mahlon Sweet

Weather History for KEUG - January, 2013

Change the Weather History Date:

Sunday, January 6, 2013

  Actual Average Record
Temperature  
Mean Temperature 43 °F 40 °F  
Max Temperature 51 °F 46 °F 62 °F (1962)
Min Temperature 35 °F 34 °F 12 °F (1974)
Degree Days  
Heating Degree Days 22 25  
Month to date heating degree days 174 151  
Since 1 July heating degree days 1800 2108  
Cooling Degree Days 0 0  
Month to date cooling degree days 0 0  
Year to date cooling degree days 0 0  
Moisture  
Dew Point 39 °F    
Average Humidity 86    
Maximum Humidity 100    
Minimum Humidity 71    
Precipitation  
Precipitation T in 0.23 in 3.18 in (1948)
Month to date precipitation T 1.43  
Year to date precipitation T 1.43  
Snow  
Snow 0.00 in - - ()
Month to date snowfall 0.0  
Since 1 July snowfall 0.0  
Snow Depth 0.00 in    
Sea Level Pressure  
Sea Level Pressure 30.20 in    
Wind  
Wind Speed 5 mph (South)    
Max Wind Speed 15 mph    
Max Gust Speed 20 mph    
Visibility 6 miles    
Events Fog , Rain    
T = Trace of Precipitation, MM = Missing Value Source: NWS Daily Summary

Daily Weather History Graph

Daily Weather History Graph

Search for Another Location

Airport or City:

Trip Planner

Search our weather history database for the weather conditions in past years. The results will help you decide how hot, cold, wet, or windy it might be!

Date:

Astronomy

Jan. 06, 2013 Rise Set
Actual Time 7:47 AM PST 4:50 PM PST
Civil Twilight 7:15 AM PST 5:23 PM PST
Nautical Twilight 6:38 AM PST 5:59 PM PST
Astronomical Twilight 6:03 AM PST 6:34 PM PST
Moon 2:03 AM PST (1/6) 12:25 PM PST (1/6)
Length of Visible Light 10h 08m
Length of Day
9h 02m
Waning Crescent, 32% of the Moon is Illuminated
Jan 6
Waning Crescent
Jan 11
New
Jan 18
First Quarter
Jan 26
Full
Feb 3
Last Quarter

Hourly Weather History & Observations

Time (PST) Temp. Windchill Dew Point Humidity Pressure Visibility Wind Dir Wind Speed Gust Speed Precip Events Conditions
12:12 AM 37.4 °F 34.9 °F 37.4 °F 100% 30.19 in 3.0 mi SW 3.5 mph - N/A   Overcast
12:54 AM 37.0 °F 33.3 °F 37.0 °F 100% 30.20 in 3.0 mi South 4.6 mph - N/A   Overcast
1:19 AM 37.4 °F 33.8 °F 37.4 °F 100% 30.19 in 2.5 mi SSW 4.6 mph - N/A   Overcast
1:32 AM 37.4 °F 33.8 °F 35.6 °F 93% 30.19 in 3.0 mi WSW 4.6 mph - N/A   Overcast
1:54 AM 36.0 °F 32.1 °F 36.0 °F 100% 30.21 in 5.0 mi WSW 4.6 mph - N/A   Mostly Cloudy
2:25 AM 35.6 °F - 35.6 °F 100% 30.20 in 2.5 mi Calm Calm - N/A   Mostly Cloudy
2:34 AM 35.6 °F - 33.8 °F 93% 30.20 in 2.5 mi Calm Calm - N/A   Overcast
2:43 AM 35.6 °F 32.8 °F 35.6 °F 100% 30.20 in 3.0 mi SSE 3.5 mph - N/A   Overcast
2:54 AM 36.0 °F 33.3 °F 36.0 °F 100% 30.22 in 3.0 mi SSW 3.5 mph - N/A   Overcast
3:00 AM 35.6 °F 32.8 °F 35.6 °F 100% 30.20 in 1.5 mi SSW 3.5 mph - N/A   Overcast
3:03 AM 35.6 °F 32.8 °F 35.6 °F 100% 30.20 in 0.8 mi SSW 3.5 mph - N/A   Overcast
3:12 AM 35.6 °F - 35.6 °F 100% 30.20 in 0.2 mi Calm Calm - N/A Fog Fog
3:21 AM 35.6 °F - 35.6 °F 100% 30.21 in 0.5 mi Calm Calm - N/A Fog Fog
3:38 AM 37.4 °F - 37.4 °F 100% 30.20 in 1.5 mi Calm Calm - N/A   Overcast
3:47 AM 37.4 °F - 37.4 °F 100% 30.20 in 2.5 mi Calm Calm - N/A   Overcast
3:54 AM 37.0 °F 34.5 °F 37.0 °F 100% 30.21 in 3.0 mi West 3.5 mph - N/A   Overcast
4:54 AM 37.9 °F 35.5 °F 37.9 °F 100% 30.20 in 6.0 mi South 3.5 mph - N/A   Overcast
5:54 AM 39.0 °F - 39.0 °F 100% 30.20 in 6.0 mi Calm Calm - N/A   Overcast
6:54 AM 39.0 °F - 37.9 °F 96% 30.24 in 8.0 mi Calm Calm - N/A   Overcast
7:54 AM 39.0 °F 36.8 °F 37.9 °F 96% 30.23 in 6.0 mi ESE 3.5 mph - N/A   Overcast
8:16 AM 39.2 °F 35.9 °F 39.2 °F 100% 30.22 in 6.0 mi SE 4.6 mph - N/A   Overcast
8:54 AM 39.9 °F 37.8 °F 39.0 °F 97% 30.24 in 5.0 mi SSE 3.5 mph - N/A   Overcast
9:54 AM 43.0 °F 39.5 °F 39.9 °F 89% 30.24 in 7.0 mi SE 5.8 mph - N/A   Mostly Cloudy
10:54 AM 46.0 °F 44.8 °F 42.1 °F 86% 30.25 in 10.0 mi SSW 3.5 mph - N/A   Scattered Clouds
11:54 AM 48.0 °F - 42.1 °F 80% 30.22 in 10.0 mi South 3.5 mph - N/A   Scattered Clouds
12:54 PM 50.0 °F - 42.8 °F 76% 30.18 in 10.0 mi Variable 3.5 mph - N/A   Scattered Clouds
1:54 PM 50.0 °F - 41.0 °F 71% 30.19 in 10.0 mi Calm Calm - N/A   Overcast
2:54 PM 50.0 °F - 42.1 °F 74% 30.17 in 10.0 mi South 6.9 mph - N/A   Overcast
3:54 PM 48.0 °F - 41.0 °F 77% 30.17 in 10.0 mi South 8.1 mph - N/A   Overcast
4:54 PM 46.0 °F 41.9 °F 41.0 °F 83% 30.17 in 10.0 mi SSE 8.1 mph - N/A   Mostly Cloudy
5:54 PM 46.0 °F 43.9 °F 41.0 °F 83% 30.18 in 10.0 mi South 4.6 mph - N/A   Overcast
7:54 PM 46.0 °F 43.1 °F 41.0 °F 83% 30.17 in 10.0 mi South 5.8 mph - 0.00 in   Overcast
8:54 PM 46.0 °F 41.9 °F 41.0 °F 83% 30.16 in 10.0 mi SSE 8.1 mph - 0.00 in Rain Light Rain
9:54 PM 46.9 °F - 41.0 °F 80% 30.16 in 10.0 mi South 12.7 mph - 0.00 in   Overcast
10:54 PM 46.9 °F - 39.9 °F 77% 30.15 in 10.0 mi South 10.4 mph - N/A   Overcast
11:04 PM 46.4 °F 41.5 °F 39.2 °F 76% 30.14 in 10.0 mi South 10.4 mph - N/A   Overcast
11:54 PM 46.9 °F - 39.9 °F 77% 30.14 in 10.0 mi South 13.8 mph - 0.00 in   Overcast